Location: Kershaw
(34.5481°N, 80.5823°W)
Time: 23:54:34
(UTC+00:00)

A-11 Canister half - Pass Details

Date: 08 October 2022
Orbit: 1524 x 1685 km, 47.3° (Epoch: 05 December)

Event Time Altitude Azimuth Distance (km) Brightness Sun altitude
Rises 23:55:17 0° 301° (WNW) 4,685 12.7 -12.6°
Reaches altitude 10° 23:58:28 10° 307° (NW) 3,712 11.9 -13.2°
Maximum altitude 00:07:32 50° 22° (NNE) 1,920 9.4 -15.1°
Enters shadow 00:13:58 21° 88° (E) 2,995 9.9 -16.4°
